Track ONEWEB-0069 now! 10-day predictions ONEWEB-0069 is classified as:
1 45430U 20020G 22224.89624768 .00000561 00000-0 15465-2 0 9997 2 45430 87.8855 300.2295 0002244 95.6892 264.4492 13.11415732118628